Date String (YYYY-MM-DD hh:mm:ss) UTC,Instrument flags,absolute air pressure of the measurement (hPa),sample flow rate (lpm),inlet stack bypass flow (lpm),air temperature of the measurement (°C),ambient temperature measured by the external sensor (°C),aerosol sample conditioner tube jacket temperature (°C),OPC LED temperature (°C),internal box temperature (°C),relative humidity of the measurement (%),span deviation,mass concentration of particles derived from Lorenz-Mie calculation of OPC scattering (μg/m³),mass concentration of particles derived from Lorenz-Mie calculation of OPC scattering (μg/m³),mass concentration of particles derived from Lorenz-Mie calculation of OPC scattering (μg/m³)
DateTimeUTC,F1_M11,P_M11,Q1_M11,Q2_M11,T1_M11,T2_M11,T3_M11,T4_M11,T5_M11,U1_M11,ZSPAN_M11,X2_M11,X0_M11,X1_M11
2024-01-31 20:00:00,SystemResetWarning,0828.6,5.01,000.00,025.3,023.4,000.0,034.0,026.7,09.4,0000.0,0002.09,0005.88,0001.42
2024-01-31 20:01:00,SystemResetWarning,0828.7,4.99,000.00,025.3,023.7,000.0,033.9,026.9,09.2,0000.0,0002.13,0004.92,0001.45
2024-01-31 20:02:00,SystemResetWarning,0828.7,4.99,000.00,025.3,024.1,000.0,033.9,027.0,09.3,0000.0,0002.19,0005.03,0001.48
2024-01-31 20:03:00,SystemResetWarning,0828.6,5.00,000.00,025.4,024.3,000.0,033.9,027.1,09.1,0000.0,0002.14,0004.83,0001.50
2024-01-31 20:04:00,SystemResetWarning,0828.6,5.00,000.00,025.4,024.5,000.0,033.9,027.2,08.9,0000.0,0002.14,0004.82,0001.49
2024-01-31 20:05:00,SystemResetWarning,0828.6,5.01,000.00,025.5,024.7,000.0,033.8,027.3,08.9,0000.0,0002.17,0004.93,0001.50
2024-01-31 20:06:00,SystemResetWarning,0828.6,5.01,000.00,025.5,024.8,000.0,033.8,027.4,09.0,0000.0,0002.18,0004.82,0001.51
2024-01-31 20:07:00,SystemResetWarning,0828.6,5.00,000.00,025.6,025.0,000.0,033.9,027.4,08.6,0000.0,0002.19,0004.83,0001.53
2024-01-31 20:08:00,SystemResetWarning,0828.6,4.99,000.00,025.6,025.1,000.0,033.9,027.5,08.6,0000.0,0002.17,0004.77,0001.53
2024-01-31 20:09:00,SystemResetWarning,0828.6,4.99,000.00,025.7,025.2,000.0,033.9,027.6,08.4,0000.0,0002.19,0004.76,0001.53
2024-01-31 20:10:00,SystemResetWarning,0828.6,5.01,000.00,025.7,025.3,000.0,033.9,027.6,08.5,0000.0,0002.18,0005.14,0001.52
2024-01-31 20:11:00,SystemResetWarning,0828.6,5.01,000.00,025.8,025.4,000.0,033.9,027.7,08.4,0000.0,0002.14,0005.50,0001.50
2024-01-31 20:12:00,SystemResetWarning,0828.6,4.99,000.00,025.8,025.4,000.0,034.0,027.7,08.5,0000.0,0002.11,0005.48,0001.47
2024-01-31 20:13:00,SystemResetWarning,0828.6,5.00,000.00,025.9,025.5,000.0,034.0,027.8,08.4,0000.0,0002.08,0006.10,0001.44
2024-01-31 20:14:00,SystemResetWarning,0828.5,5.00,000.00,025.9,025.6,000.0,034.0,027.8,08.4,0000.0,0002.07,0007.26,0001.41
2024-01-31 20:15:00,SystemResetWarning,0828.5,5.00,000.00,026.0,025.6,000.0,034.0,027.9,08.4,0000.0,0002.05,0007.36,0001.40
2024-01-31 20:16:00,SystemResetWarning,0828.5,5.01,000.00,026.0,025.7,000.0,034.1,027.9,08.2,0000.0,0002.02,0007.46,0001.37
2024-01-31 20:17:00,SystemResetWarning,0828.5,5.01,000.00,026.1,025.7,000.0,034.1,028.0,07.9,0000.0,0001.99,0007.74,0001.33
2024-01-31 20:18:00,SystemResetWarning,0828.4,4.98,000.00,026.0,024.7,000.0,034.2,027.4,07.7,0000.0,0001.96,0008.84,0001.30
2024-01-31 20:19:00,SystemResetWarning,0828.4,5.00,000.00,025.6,022.3,000.0,034.2,026.2,08.0,0000.0,0001.95,0008.87,0001.27
2024-01-31 20:20:00,SystemResetWarning,0828.4,5.01,000.00,025.2,021.8,000.0,034.2,025.8,08.6,0000.0,0001.92,0008.78,0001.25
2024-01-31 20:21:00,SystemResetWarning,0828.4,5.00,000.00,025.0,022.2,000.0,034.1,025.9,08.9,0000.0,0001.88,0008.25,0001.24
2024-01-31 20:22:00,SystemResetWarning,0828.4,5.00,000.00,025.0,022.6,000.0,033.9,026.2,08.4,0000.0,0001.85,0007.76,0001.24
2024-01-31 20:23:00,SystemResetWarning,0828.4,5.00,000.00,025.1,023.0,000.0,033.8,026.4,08.3,0000.0,0001.87,0008.10,0001.23
2024-01-31 20:24:00,SystemResetWarning,0828.4,5.00,000.00,025.1,023.4,000.0,033.7,026.6,08.4,0000.0,0001.84,0008.20,0001.21
2024-01-31 20:25:00,SystemResetWarning,0828.4,5.00,000.00,025.1,023.8,000.0,033.7,026.8,08.4,0000.0,0001.84,0007.56,0001.20
2024-01-31 20:26:00,SystemResetWarning,0828.4,5.00,000.00,025.2,024.1,000.0,033.6,026.9,08.2,0000.0,0001.83,0007.79,0001.19
2024-01-31 20:27:00,SystemResetWarning,0828.4,4.98,000.00,025.3,024.3,000.0,033.6,027.0,08.3,0000.0,0001.74,0008.27,0001.16
2024-01-31 20:28:00,SystemResetWarning,0828.3,5.01,000.00,025.3,024.6,000.0,033.6,027.1,08.3,0000.0,0001.71,0008.03,0001.16
2024-01-31 20:29:00,SystemResetWarning,0828.4,5.01,000.00,025.4,024.7,000.0,033.6,027.2,08.4,0000.0,0001.73,0007.33,0001.18
2024-01-31 20:30:00,SystemResetWarning,0828.4,4.99,000.00,025.4,024.9,000.0,033.6,027.2,08.3,0000.0,0001.75,0007.14,0001.19
2024-01-31 20:31:00,SystemResetWarning,0828.4,4.99,000.00,025.5,025.0,000.0,033.6,027.3,08.3,0000.0,0001.73,0008.05,0001.21
2024-01-31 20:32:00,SystemResetWarning,0828.3,4.99,000.00,025.5,025.1,000.0,033.7,027.4,08.3,0000.0,0001.73,0008.70,0001.21
2024-01-31 20:33:00,SystemResetWarning,0828.3,5.01,000.00,025.6,025.2,000.0,033.7,027.5,08.3,0000.0,0001.75,0009.16,0001.20
2024-01-31 20:34:00,SystemResetWarning,0828.3,5.00,000.00,025.7,025.3,000.0,033.7,027.6,08.3,0000.0,0001.74,0008.97,0001.21
2024-01-31 20:35:00,SystemResetWarning,0828.4,5.00,000.00,025.7,025.4,000.0,033.8,027.6,08.4,0000.0,0001.76,0008.77,0001.24
2024-01-31 20:36:00,SystemResetWarning,0828.3,4.99,000.00,025.8,025.5,000.0,033.8,027.7,08.4,0000.0,0001.73,0009.25,0001.26
2024-01-31 20:37:00,SystemResetWarning,0828.4,5.01,000.00,025.8,025.5,000.0,033.8,027.7,08.4,0000.0,0001.72,0008.98,0001.28
2024-01-31 20:38:00,SystemResetWarning,0828.3,5.02,000.00,025.9,025.6,000.0,033.9,027.8,08.4,0000.0,0001.77,0008.23,0001.32
2024-01-31 20:39:00,SystemResetWarning,0828.3,4.99,000.00,025.9,025.6,000.0,033.9,027.8,08.6,0000.0,0001.82,0008.56,0001.37
2024-01-31 20:40:00,SystemResetWarning,0828.3,4.99,000.00,026.0,025.7,000.0,034.0,027.9,08.7,0000.0,0001.88,0008.59,0001.41
2024-01-31 20:41:00,SystemResetWarning,0828.3,5.00,000.00,025.9,024.4,000.0,034.1,027.2,08.7,0000.0,0001.92,0008.54,0001.45
2024-01-31 20:42:00,SystemResetWarning,0828.2,5.02,000.00,025.5,022.8,000.0,034.1,026.4,09.0,0000.0,0001.96,0007.54,0001.50
2024-01-31 20:43:00,SystemResetWarning,0828.2,5.01,000.00,025.3,022.8,000.0,034.1,026.3,09.2,0000.0,0002.04,0007.20,0001.55
2024-01-31 20:44:00,SystemResetWarning,0828.2,4.98,000.00,025.2,023.1,000.0,033.9,026.4,09.5,0000.0,0002.11,0008.16,0001.63
2024-01-31 20:45:00,SystemResetWarning,0828.2,5.00,000.00,025.3,023.4,000.0,033.8,026.6,09.5,0000.0,0002.18,0009.29,0001.70
2024-01-31 20:46:00,SystemResetWarning,0828.2,5.00,000.00,025.3,023.8,000.0,033.7,026.8,09.2,0000.0,0002.33,0009.49,0001.80
2024-01-31 20:47:00,SystemResetWarning,0828.2,5.00,000.00,025.3,024.1,000.0,033.7,027.0,09.1,0000.0,0002.49,0009.01,0001.91
2024-01-31 20:48:00,SystemResetWarning,0828.2,5.01,000.00,025.4,024.3,000.0,033.7,027.1,09.0,0000.0,0002.65,0009.21,0002.01
2024-01-31 20:49:00,SystemResetWarning,0828.1,5.01,000.00,025.4,024.5,000.0,033.7,027.2,09.1,0000.0,0002.73,0009.27,0002.08
2024-01-31 20:50:00,SystemResetWarning,0828.1,4.98,000.00,025.5,024.7,000.0,033.7,027.3,09.2,0000.0,0002.82,0009.01,0002.16
2024-01-31 20:51:00,SystemResetWarning,0828.0,4.99,000.00,025.5,024.9,000.0,033.7,027.4,08.8,0000.0,0002.86,0008.75,0002.22
2024-01-31 20:52:00,SystemResetWarning,0828.0,5.01,000.00,025.6,025.0,000.0,033.7,027.4,08.9,0000.0,0002.92,0008.83,0002.27
2024-01-31 20:53:00,SystemResetWarning,0828.1,5.01,000.00,025.6,025.1,000.0,033.8,027.5,08.9,0000.0,0003.01,0008.93,0002.31
2024-01-31 20:54:00,SystemResetWarning,0828.0,4.99,000.00,025.7,025.2,000.0,033.8,027.6,09.0,0000.0,0003.03,0008.98,0002.34
2024-01-31 20:55:00,SystemResetWarning,0828.0,4.99,000.00,025.8,025.3,000.0,033.8,027.6,09.0,0000.0,0003.06,0008.04,0002.37
2024-01-31 20:56:00,SystemResetWarning,0828.1,5.00,000.00,025.8,025.4,000.0,033.8,027.7,09.1,0000.0,0003.13,0007.65,0002.41
2024-01-31 20:57:00,SystemResetWarning,0828.1,5.01,000.00,025.9,025.5,000.0,033.9,027.7,09.0,0000.0,0003.12,0007.87,0002.43
2024-01-31 20:58:00,SystemResetWarning,0828.1,5.01,000.00,025.9,025.6,000.0,033.9,027.8,09.0,0000.0,0003.14,0008.19,0002.45
2024-01-31 20:59:00,SystemResetWarning,0828.1,4.98,000.00,025.9,024.7,000.0,034.0,027.3,09.0,0000.0,0003.13,0008.09,0002.48
